Location: Newark
(33.2404°N, 35.6778°E)
Time: 18:34:48
(UTC+00:00)

Hubble Space Telescope - Pass Details

Date: 07 February 2020
Orbit: 536 x 540 km, 28.5° (Epoch: 16 February)

Event Time Altitude Azimuth Distance (km) Brightness Sun altitude
Exits shadow 02:39:30 38° 178° (S) 819 1.7 -23.3°
Drops below altitude 10° 02:43:06 10° 118° (ESE) 1,776 4.3 -22.5°
Sets 02:45:27 0° 110° (ESE) 2,666 5.6 -22.0°
